EW2835 Weather Reports


time (UTC)temp
F
wind
direction
speed
knots
gust
knots
rain 1hr
in
rain 24hr
in
rain mn
in
humidity
%
barometer
mb
20260831080025 60 169 0.0 2.6 0.07 0.10 0.10 94 1011.5
20260831074526 60 144 0.0 3.5 0.09 0.09 0.09 94 1011.7
20260831073024 60 175 0.9 3.5 0.09 0.09 0.09 93 1011.5
20260831071520 60 225 0.9 5.2 0.08 0.08 0.08 92 1011.4
20260831070023 60 182 0.0 1.7 0.03 0.03 0.03 90 1011.3
20260831064514 60 161 0.0 3.5 0.00 0.00 0.00 89 1011.1
20260831063014 60 123 0.0 1.7 0.00 0.00 0.00 90 1010.8
20260831061513 59 81 0.0 0.0 0.00 0.00 0.00 92 1010.8
20260831060015 59 81 0.0 0.0 0.00 0.00 0.00 92 1010.8
20260831054511 58 81 0.0 0.0 0.00 0.00 0.00 92 1010.7
20260831053010 58 81 0.0 0.0 0.00 0.00 0.00 92 1010.7
20260831051506 57 81 0.0 0.0 0.00 0.00 0.00 92 1010.8
20260831050005 57 161 0.0 0.0 0.00 0.00 0.00 93 1011.0
20260831044504 56 161 0.0 0.0 0.00 0.00 0.00 92 1011.1
20260831043004 56 161 0.0 0.0 0.00 0.00 0.00 92 1011.0
20260831041605 56 161 0.0 0.0 0.00 0.00 0.00 92 1010.9
20260831040100 55 161 0.0 0.0 0.00 0.00 0.00 91 1010.9
20260831034557 55 161 0.0 0.0 0.00 0.00 0.00 91 1011.4
20260831033102 55 161 0.0 0.0 0.00 0.00 0.00 91 1011.4
20260831031553 55 161 0.0 0.0 0.00 0.00 0.00 90 1011.5
20260831030053 55 161 0.0 0.0 0.00 0.00 0.00 90 1011.5
20260831024604 55 161 0.0 0.0 0.00 0.00 0.00 90 1011.4
20260831023050 56 161 0.0 0.0 0.00 0.00 0.00 90 1011.5
20260831021557 56 161 0.0 0.0 0.00 0.00 0.00 90 1011.7
20260831020048 56 161 0.0 0.9 0.00 0.00 0.00 90 1011.7
20260831014544 56 169 0.0 1.7 0.00 0.00 0.00 89 1011.8
20260831013042 56 170 0.0 1.7 0.00 0.00 0.00 88 1011.9
20260831011542 57 254 0.0 0.0 0.00 0.00 0.00 87 1012.1
20260831010104 57 254 0.0 0.0 0.00 0.00 0.00 87 1012.2
20260831004542 58 254 0.0 0.0 0.00 0.00 0.00 87 1012.3
20260831003034 58 254 0.0 0.0 0.00 0.00 0.00 86 1012.5
20260831001549 58 254 0.0 0.0 0.00 0.00 0.00 85 1012.5
20260831000029 59 254 0.0 0.0 0.00 0.00 0.00 85 1012.5
20260830234530 59 254 0.0 0.0 0.00 0.00 0.00 85 1012.4
20260830233026 59 254 0.0 0.0 0.00 0.00 0.00 84 1012.4
20260830231529 60 254 0.0 0.0 0.00 0.00 0.00 84 1012.4
20260830230022 60 254 0.0 0.0 0.00 0.00 0.00 83 1012.5
20260830224522 60 254 0.0 0.0 0.00 0.00 0.00 83 1012.4
20260830223023 61 254 0.0 0.9 0.00 0.00 0.00 82 1012.5
20260830221517 61 254 0.0 0.0 0.00 0.00 0.00 81 1012.4
20260830220016 62 254 0.0 0.0 0.00 0.00 0.00 80 1012.5
20260830214513 62 254 0.0 0.0 0.00 0.00 0.00 80 1012.5
20260830213011 63 254 0.0 0.0 0.00 0.00 0.00 79 1012.6
20260830211519 63 254 0.0 0.0 0.00 0.00 0.00 78 1012.5
20260830210012 64 254 0.0 0.0 0.00 0.00 0.00 77 1012.5
20260830204508 64 254 0.0 0.0 0.00 0.00 0.00 75 1012.4
20260830203013 65 254 0.0 0.0 0.00 0.00 0.00 74 1012.3
20260830201510 66 254 0.0 0.0 0.00 0.00 0.00 73 1012.3
20260830200007 66 254 0.0 0.9 0.00 0.00 0.00 72 1012.3
20260830194506 67 254 0.0 0.0 0.00 0.00 0.00 70 1012.4
20260830193005 67 254 0.0 0.0 0.00 0.00 0.00 69 1012.2
20260830191506 68 254 0.0 0.9 0.00 0.00 0.00 67 1012.2
20260830190007 69 248 0.0 0.9 0.00 0.00 0.00 66 1012.2
20260830184502 69 159 0.0 2.6 0.00 0.00 0.00 65 1012.1
20260830183123 70 275 0.0 1.7 0.00 0.00 0.00 64 1012.0
20260830181613 70 292 0.0 5.2 0.00 0.00 0.00 63 1011.9
20260830180109 71 272 0.0 3.5 0.00 0.00 0.00 62 1011.7
20260830174558 72 281 1.7 9.6 0.00 0.00 0.00 60 1011.5
20260830173117 72 260 0.9 4.3 0.00 0.00 0.00 59 1011.5
20260830171601 73 298 0.0 5.2 0.00 0.00 0.00 57 1011.3
20260830170052 74 275 0.0 7.0 0.00 0.00 0.00 56 1011.2
20260830164551 74 294 1.7 8.7 0.00 0.00 0.00 54 1011.0
20260830163055 75 252 1.7 11.3 0.00 0.00 0.00 53 1010.9
20260830160018 76 254 1.7 7.8 0.00 0.00 0.00 52 1010.6
20260830154518 76 277 2.6 7.8 0.00 0.00 0.00 52 1010.5
20260830153017 76 240 1.7 6.1 0.00 0.00 0.00 52 1010.3
20260830151520 77 326 1.7 8.7 0.00 0.00 0.00 52 1010.4
20260830150015 78 296 1.7 6.1 0.00 0.00 0.00 49 1010.3
20260830144518 77 250 1.7 7.0 0.00 0.00 0.00 50 1010.3
20260830143020 77 246 2.6 6.1 0.00 0.00 0.00 50 1010.2
20260830141514 77 276 0.9 7.8 0.00 0.00 0.00 51 1010.2
20260830140013 78 340 2.6 7.8 0.00 0.00 0.00 51 1010.1
20260830134533 78 262 0.9 6.1 0.00 0.00 0.00 53 1010.1
20260830133012 78 215 2.6 10.4 0.00 0.00 0.00 51 1010.0
20260830131511 81 142 3.5 13.0 0.00 0.00 0.00 48 1009.9
20260830130010 81 173 2.6 12.2 0.00 0.00 0.00 52 1009.8
20260830124509 79 325 1.7 14.8 0.00 0.00 0.00 54 1010.0
20260830123009 78 141 3.5 13.0 0.00 0.00 0.00 53 1009.9
20260830121507 80 171 1.7 13.9 0.00 0.00 0.00 55 1009.9
20260830120006 79 119 7.0 14.8 0.00 0.00 0.00 53 1009.9
20260830114505 80 134 0.9 13.0 0.00 0.00 0.00 57 1009.9
20260830113006 80 181 4.3 17.4 0.00 0.00 0.00 55 1009.9
20260830111503 81 223 5.2 13.0 0.00 0.00 0.00 53 1009.8
20260830110001 79 168 4.3 13.9 0.00 0.00 0.00 55 1010.0
20260830104601 78 172 3.5 13.9 0.00 0.00 0.00 57 1009.9
20260830103103 78 225 6.1 15.6 0.00 0.00 0.00 55 1010.0
20260830101601 79 140 2.6 13.0 0.00 0.00 0.00 57 1009.8
20260830100058 79 301 2.6 10.4 0.00 0.00 0.00 55 1009.7
20260830094558 81 250 1.7 12.2 0.00 0.00 0.00 51 1009.7
20260830093121 79 219 2.6 13.0 0.00 0.00 0.00 55 1009.9
20260830091555 80 279 3.5 12.2 0.00 0.00 0.00 54 1009.9
20260830090052 79 245 2.6 10.4 0.00 0.00 0.00 57 1009.9
20260830084550 77 283 4.3 17.4 0.00 0.00 0.00 58 1009.9
20260830083044 76 181 1.7 9.6 0.00 0.00 0.00 61 1009.8
20260830081541 74 263 2.6 10.4 0.00 0.00 0.00 62 1010.0